Regional Weather Roundup
Issued by NWS

Home | Current Version | Previous Version | Text Only | Print | Product List | Glossary Off
Versions: 1 2 3 4 5 6 7 8 9 10 11 12 13 14 15 16 17 18 19 20 21 22 23 24 25 26 27 28 29 30 31 32 33 34 35 36 37 38 39 40 41 42 43 44 45 46 47 48 49 50

000
ASUS43 KFSD 300902
RWRSD

WEATHER ROUNDUP FOR SOUTH DAKOTA
NATIONAL WEATHER SERVICE SIOUX FALLS SD
400 AM CDT TUE JUN 30 2015

NOTE: "FAIR" INDICATES FEW OR NO CLOUDS BELOW 12,000 FEET WITH NO
SIGNIFICANT WEATHER AND/OR OBSTRUCTIONS TO VISIBILITY.


SDZ001>005-009-010-012>017-301000-
NORTHWEST AND NORTH CENTRAL SOUTH DAKOTA

CITY           SKY/WX    TMP DP  RH WIND       PRES   REMARKS
BUFFALO          N/A     68  57  68 W5        29.88F
FAITH            N/A     70  59  68 SW5       29.90F
MOBRIDGE       LGT RAIN  70  65  84 SE6       29.94R
$$

SDZ012>016-024>037-041>051-057-063-072>074-301000-
SOUTHWEST AND SOUTH CENTRAL SOUTH DAKOTA

CITY           SKY/WX    TMP DP  RH WIND       PRES   REMARKS
RAPID CTY ARPT MOCLDY    66  56  70 SW3       29.97F
PIERRE         CLEAR     69  62  78 E9        29.90S
CUSTER         CLOUDY    59  51  75 W6        30.17F
ELLSWORTH AFB  MOCLDY    69  57  65 SW6       29.96F
PHILIP         PTCLDY    67  63  87 W5        29.91S
PINE RIDGE     CLEAR     61  56  83 W5        30.02F
WINNER         FAIR      74  55  51 SW10      29.91F
$$

SDZ004>011-016>023-039-040-301000-
NORTHEAST SOUTH DAKOTA

CITY           SKY/WX    TMP DP  RH WIND       PRES   REMARKS
ABERDEEN       CLOUDY    65  62  90 NE3       29.94S
WATERTOWN      PTCLDY    63  59  87 N3        29.93F
BROOKINGS      PTCLDY    61  55  82 CALM      29.95S
SISSETON         N/A     61  59  93 NW7       29.91S
$$

SDZ017-020-022-023-036>040-048>070-301000-
SOUTHEAST SOUTH DAKOTA

CITY           SKY/WX    TMP DP  RH WIND       PRES   REMARKS
SIOUX FALLS    CLOUDY    63  60  90 W3        29.92S
HURON          LGT RAIN  68  65  90 CALM      29.92F
CHAMBERLAIN    MOCLDY    70  63  78 E9        29.93S
MITCHELL       LGT RAIN  70  67  90 NE5       29.95R
YANKTON        CLEAR     63  59  88 NE8       29.91R
$$

ABBREVIATIONS USED IN REMARKS
   TC - TEMPERATURE IN CELSIUS
  WCI - WIND CHILL INDEX
   HX - HEAT INDEX
  VSB - VISIBILITY



USA.gov is the U.S. government's official web portal to all federal, state and local government web resources and services.